| time (UTC) | temp F | wind direction | speed MPH | gust MPH | rain 1hr in | rain 24hr in | rain mn in | humidity % | barometer mb |
| 20260506222703 | 65 | 247 | 0.0 | 1.0 | 0.00 | 0.00 | 0.00 | 46 | 1024.3 |
| 20260506222403 | 65 | 244 | 0.0 | 1.0 | 0.00 | 0.00 | 0.00 | 46 | 1024.4 |
| 20260506222103 | 65 | 241 | 0.0 | 1.0 | 0.00 | 0.00 | 0.00 | 47 | 1024.3 |
| 20260506221803 | 65 | 237 | 0.0 | 1.0 | 0.00 | 0.00 | 0.00 | 46 | 1024.4 |
| 20260506221504 | 65 | 231 | 0.0 | 1.0 | 0.00 | 0.00 | 0.00 | 47 | 1024.7 |
| 20260506221203 | 65 | 223 | 0.0 | 1.0 | 0.00 | 0.00 | 0.00 | 47 | 1024.7 |
| 20260506221118 | 65 | 223 | 0.0 | 1.0 | 0.00 | 0.00 | 0.00 | 47 | 1024.6 |
| 20260506220603 | 65 | 222 | 0.0 | 1.0 | 0.00 | 0.00 | 0.00 | 47 | 1024.6 |
| 20260506220303 | 65 | 222 | 0.0 | 1.0 | 0.00 | 0.00 | 0.00 | 47 | 1024.6 |
| 20260506220003 | 65 | 222 | 0.0 | 1.0 | 0.00 | 0.00 | 0.00 | 47 | 1024.5 |
| 20260506215703 | 65 | 221 | 0.0 | 1.0 | 0.00 | 0.00 | 0.00 | 48 | 1024.7 |
| 20260506215403 | 65 | 0 | 0.0 | 0.0 | 0.00 | 0.00 | 0.00 | 49 | 1024.5 |
| 20260506215103 | 65 | 0 | 0.0 | 0.0 | 0.00 | 0.00 | 0.00 | 49 | 1024.6 |
| 20260506214803 | 65 | 0 | 0.0 | 0.0 | 0.00 | 0.00 | 0.00 | 48 | 1024.7 |
| 20260506214718 | 66 | 0 | 0.0 | 0.0 | 0.00 | 0.00 | 0.00 | 48 | 1024.7 |
| 20260506214203 | 66 | 0 | 0.0 | 0.0 | 0.00 | 0.00 | 0.00 | 48 | 1024.8 |
| 20260506213903 | 66 | 0 | 0.0 | 0.0 | 0.00 | 0.00 | 0.00 | 47 | 1024.4 |
| 20260506213817 | 66 | 0 | 0.0 | 0.0 | 0.00 | 0.00 | 0.00 | 47 | 1024.4 |
| 20260506213303 | 66 | 0 | 0.0 | 0.0 | 0.00 | 0.00 | 0.00 | 47 | 1024.6 |
| 20260506213003 | 66 | 0 | 0.0 | 0.0 | 0.00 | 0.00 | 0.00 | 47 | 1024.7 |
| 20260506212703 | 67 | 221 | 0.0 | 1.0 | 0.00 | 0.00 | 0.00 | 46 | 1024.6 |
| 20260506212403 | 67 | 221 | 0.0 | 1.0 | 0.00 | 0.00 | 0.00 | 46 | 1024.8 |
| 20260506212318 | 67 | 221 | 0.0 | 1.0 | 0.00 | 0.00 | 0.00 | 46 | 1024.8 |
| 20260506212018 | 67 | 221 | 0.0 | 1.0 | 0.00 | 0.00 | 0.00 | 45 | 1024.8 |
| 20260506211503 | 66 | 0 | 0.0 | 0.0 | 0.00 | 0.00 | 0.00 | 46 | 1024.7 |
| 20260506211203 | 66 | 0 | 0.0 | 0.0 | 0.00 | 0.00 | 0.00 | 46 | 1024.7 |
| 20260506210903 | 67 | 0 | 0.0 | 0.0 | 0.00 | 0.00 | 0.00 | 45 | 1024.9 |
| 20260506210603 | 67 | 221 | 0.0 | 1.0 | 0.00 | 0.00 | 0.00 | 45 | 1024.7 |
| 20260506210303 | 67 | 221 | 0.0 | 1.0 | 0.00 | 0.00 | 0.00 | 45 | 1024.8 |
| 20260506210014 | 67 | 221 | 0.0 | 1.0 | 0.00 | 0.00 | 0.00 | 45 | 1024.8 |
| 20260506205703 | 67 | 221 | 0.0 | 1.0 | 0.00 | 0.00 | 0.00 | 44 | 1025.0 |
| 20260506205403 | 67 | 220 | 0.0 | 1.0 | 0.00 | 0.00 | 0.00 | 45 | 1024.8 |
| 20260506205103 | 67 | 230 | 0.0 | 2.0 | 0.00 | 0.00 | 0.00 | 44 | 1024.9 |
| 20260506204803 | 67 | 230 | 0.0 | 2.0 | 0.00 | 0.00 | 0.00 | 44 | 1024.9 |
| 20260506204503 | 67 | 241 | 0.0 | 2.0 | 0.00 | 0.00 | 0.00 | 44 | 1024.7 |
| 20260506204203 | 67 | 296 | 0.0 | 2.0 | 0.00 | 0.00 | 0.00 | 45 | 1024.8 |
| 20260506203903 | 67 | 301 | 0.0 | 2.0 | 0.00 | 0.00 | 0.00 | 45 | 1025.1 |
| 20260506203817 | 67 | 301 | 0.0 | 2.0 | 0.00 | 0.00 | 0.00 | 45 | 1025.0 |
| 20260506203304 | 67 | 292 | 0.0 | 1.0 | 0.00 | 0.00 | 0.00 | 45 | 1024.8 |
| 20260506203003 | 67 | 277 | 0.0 | 1.0 | 0.00 | 0.00 | 0.00 | 44 | 1025.1 |
| 20260506202704 | 67 | 277 | 0.0 | 1.0 | 0.00 | 0.00 | 0.00 | 44 | 1025.1 |
| 20260506202403 | 67 | 274 | 0.0 | 1.0 | 0.00 | 0.00 | 0.00 | 44 | 1025.2 |
| 20260506202103 | 67 | 237 | 0.0 | 1.0 | 0.00 | 0.00 | 0.00 | 44 | 1024.9 |
| 20260506201803 | 67 | 0 | 0.0 | 0.0 | 0.00 | 0.00 | 0.00 | 44 | 1025.1 |
| 20260506201503 | 67 | 236 | 0.0 | 1.0 | 0.00 | 0.00 | 0.00 | 43 | 1024.9 |
| 20260506201203 | 67 | 239 | 0.0 | 1.0 | 0.00 | 0.00 | 0.00 | 43 | 1024.7 |
| 20260506200903 | 68 | 241 | 1.0 | 2.0 | 0.00 | 0.00 | 0.00 | 43 | 1024.8 |
| 20260506200603 | 68 | 244 | 1.0 | 2.0 | 0.00 | 0.00 | 0.00 | 42 | 1025.0 |
| 20260506200518 | 68 | 244 | 1.0 | 2.0 | 0.00 | 0.00 | 0.00 | 42 | 1025.0 |
| 20260506200003 | 68 | 248 | 0.0 | 2.0 | 0.00 | 0.00 | 0.00 | 41 | 1024.7 |
| 20260506195703 | 68 | 303 | 0.0 | 2.0 | 0.00 | 0.00 | 0.00 | 40 | 1024.8 |
| 20260506195403 | 68 | 287 | 1.0 | 2.0 | 0.00 | 0.00 | 0.00 | 39 | 1024.7 |
| 20260506195103 | 69 | 274 | 1.0 | 2.0 | 0.00 | 0.00 | 0.00 | 39 | 1024.7 |
| 20260506194803 | 69 | 255 | 1.0 | 2.0 | 0.00 | 0.00 | 0.00 | 38 | 1024.8 |
| 20260506194717 | 69 | 248 | 1.0 | 2.0 | 0.00 | 0.00 | 0.00 | 38 | 1024.7 |
| 20260506194203 | 69 | 231 | 0.0 | 2.0 | 0.00 | 0.00 | 0.00 | 38 | 1024.4 |
| 20260506193903 | 69 | 226 | 0.0 | 1.0 | 0.00 | 0.00 | 0.00 | 38 | 1024.7 |
| 20260506193603 | 69 | 225 | 0.0 | 1.0 | 0.00 | 0.00 | 0.00 | 37 | 1024.7 |
| 20260506193518 | 69 | 225 | 0.0 | 1.0 | 0.00 | 0.00 | 0.00 | 37 | 1024.7 |
| 20260506193003 | 69 | 227 | 0.0 | 1.0 | 0.00 | 0.00 | 0.00 | 37 | 1024.6 |
| 20260506192703 | 69 | 228 | 0.0 | 1.0 | 0.00 | 0.00 | 0.00 | 37 | 1024.5 |
| 20260506192618 | 69 | 228 | 0.0 | 1.0 | 0.00 | 0.00 | 0.00 | 37 | 1024.5 |
| 20260506192103 | 69 | 236 | 0.0 | 2.0 | 0.00 | 0.00 | 0.00 | 37 | 1024.4 |
| 20260506191803 | 69 | 252 | 0.0 | 2.0 | 0.00 | 0.00 | 0.00 | 37 | 1024.0 |
| 20260506191717 | 69 | 255 | 0.0 | 2.0 | 0.00 | 0.00 | 0.00 | 38 | 1024.4 |
| 20260506191203 | 69 | 293 | 0.0 | 1.0 | 0.00 | 0.00 | 0.00 | 37 | 1024.3 |
| 20260506190903 | 69 | 303 | 0.0 | 1.0 | 0.00 | 0.00 | 0.00 | 37 | 1024.2 |
| 20260506190604 | 69 | 309 | 0.0 | 1.0 | 0.00 | 0.00 | 0.00 | 37 | 1024.3 |
| 20260506190306 | 69 | 312 | 0.0 | 1.0 | 0.00 | 0.00 | 0.00 | 37 | 1024.1 |
| 20260506190004 | 69 | 312 | 0.0 | 1.0 | 0.00 | 0.00 | 0.00 | 37 | 1024.0 |
| 20260506185703 | 69 | 312 | 0.0 | 1.0 | 0.00 | 0.00 | 0.00 | 38 | 1024.0 |
| 20260506185403 | 69 | 313 | 0.0 | 1.0 | 0.00 | 0.00 | 0.00 | 37 | 1024.1 |
| 20260506185103 | 69 | 314 | 0.0 | 1.0 | 0.00 | 0.00 | 0.00 | 37 | 1023.9 |
| 20260506184803 | 69 | 315 | 0.0 | 1.0 | 0.00 | 0.00 | 0.00 | 37 | 1024.1 |
| 20260506184503 | 69 | 316 | 0.0 | 1.0 | 0.00 | 0.00 | 0.00 | 37 | 1024.0 |
| 20260506184203 | 70 | 316 | 0.0 | 1.0 | 0.00 | 0.00 | 0.00 | 37 | 1023.9 |
| 20260506183903 | 70 | 316 | 0.0 | 1.0 | 0.00 | 0.00 | 0.00 | 37 | 1023.9 |
| 20260506183604 | 70 | 316 | 0.0 | 2.0 | 0.00 | 0.00 | 0.00 | 37 | 1023.9 |
| 20260506183518 | 70 | 317 | 0.0 | 2.0 | 0.00 | 0.00 | 0.00 | 37 | 1023.9 |
| 20260506183218 | 70 | 317 | 0.0 | 2.0 | 0.00 | 0.00 | 0.00 | 37 | 1023.9 |
| 20260506182703 | 70 | 315 | 0.0 | 2.0 | 0.00 | 0.00 | 0.00 | 38 | 1023.8 |
| 20260506182403 | 70 | 316 | 0.0 | 2.0 | 0.00 | 0.00 | 0.00 | 38 | 1023.9 |
| 20260506182103 | 70 | 311 | 1.0 | 2.0 | 0.00 | 0.00 | 0.00 | 37 | 1023.7 |
| 20260506181803 | 70 | 301 | 0.0 | 2.0 | 0.00 | 0.00 | 0.00 | 37 | 1023.7 |
| 20260506181719 | 70 | 299 | 0.0 | 2.0 | 0.00 | 0.00 | 0.00 | 37 | 1023.5 |
| 20260506181203 | 70 | 252 | 0.0 | 3.0 | 0.00 | 0.00 | 0.00 | 37 | 1023.7 |
| 20260506180903 | 70 | 246 | 1.0 | 3.0 | 0.00 | 0.00 | 0.00 | 37 | 1023.7 |
| 20260506180603 | 70 | 247 | 1.0 | 3.0 | 0.00 | 0.00 | 0.00 | 36 | 1023.7 |
| 20260506180303 | 70 | 249 | 1.0 | 3.0 | 0.00 | 0.00 | 0.00 | 36 | 1023.4 |
| 20260506180004 | 70 | 256 | 0.0 | 1.0 | 0.00 | 0.00 | 0.00 | 37 | 1023.7 |
| 20260506175703 | 70 | 284 | 1.0 | 3.0 | 0.00 | 0.00 | 0.00 | 37 | 1023.5 |
| 20260506175403 | 70 | 276 | 1.0 | 3.0 | 0.00 | 0.00 | 0.00 | 37 | 1023.5 |
| 20260506175103 | 71 | 275 | 1.0 | 3.0 | 0.00 | 0.00 | 0.00 | 37 | 1023.7 |
| 20260506175019 | 71 | 276 | 1.0 | 3.0 | 0.00 | 0.00 | 0.00 | 37 | 1023.5 |
| 20260506174503 | 71 | 236 | 0.0 | 1.0 | 0.00 | 0.00 | 0.00 | 37 | 1023.3 |
| 20260506174418 | 71 | 237 | 1.0 | 2.0 | 0.00 | 0.00 | 0.00 | 37 | 1023.3 |
| 20260506173903 | 71 | 238 | 1.0 | 3.0 | 0.00 | 0.00 | 0.00 | 37 | 1023.5 |
| 20260506173603 | 71 | 237 | 1.0 | 4.0 | 0.00 | 0.00 | 0.00 | 37 | 1023.2 |
| 20260506173517 | 71 | 237 | 1.0 | 4.0 | 0.00 | 0.00 | 0.00 | 37 | 1023.1 |
| 20260506173217 | 71 | 231 | 1.0 | 4.0 | 0.00 | 0.00 | 0.00 | 37 | 1023.3 |
| 20260506172917 | 71 | 232 | 1.0 | 4.0 | 0.00 | 0.00 | 0.00 | 37 | 1023.2 |
| 20260506172403 | 71 | 234 | 1.0 | 4.0 | 0.00 | 0.00 | 0.00 | 37 | 1023.2 |
| 20260506172103 | 71 | 238 | 1.0 | 6.0 | 0.00 | 0.00 | 0.00 | 37 | 1023.5 |
| 20260506171803 | 71 | 239 | 1.0 | 6.0 | 0.00 | 0.00 | 0.00 | 37 | 1023.3 |
| 20260506171718 | 71 | 240 | 2.0 | 6.0 | 0.00 | 0.00 | 0.00 | 37 | 1023.3 |
| 20260506171203 | 71 | 240 | 2.0 | 4.0 | 0.00 | 0.00 | 0.00 | 37 | 1023.3 |
| 20260506170903 | 71 | 239 | 2.0 | 4.0 | 0.00 | 0.00 | 0.00 | 37 | 1023.1 |
| 20260506170603 | 71 | 239 | 2.0 | 4.0 | 0.00 | 0.00 | 0.00 | 37 | 1023.1 |
| 20260506170303 | 72 | 238 | 2.0 | 6.0 | 0.00 | 0.00 | 0.00 | 37 | 1023.2 |
| 20260506170003 | 72 | 239 | 2.0 | 6.0 | 0.00 | 0.00 | 0.00 | 37 | 1023.3 |
| 20260506165703 | 72 | 237 | 2.0 | 6.0 | 0.00 | 0.00 | 0.00 | 36 | 1023.2 |
| 20260506165617 | 72 | 236 | 2.0 | 6.0 | 0.00 | 0.00 | 0.00 | 36 | 1023.3 |
| 20260506165103 | 72 | 237 | 2.0 | 4.0 | 0.00 | 0.00 | 0.00 | 36 | 1023.3 |
| 20260506164804 | 72 | 242 | 3.0 | 6.0 | 0.00 | 0.00 | 0.00 | 36 | 1023.1 |
| 20260506164503 | 72 | 240 | 3.0 | 6.0 | 0.00 | 0.00 | 0.00 | 36 | 1023.4 |
| 20260506164203 | 72 | 240 | 3.0 | 8.0 | 0.00 | 0.00 | 0.00 | 35 | 1023.0 |
| 20260506164118 | 72 | 239 | 3.0 | 8.0 | 0.00 | 0.00 | 0.00 | 35 | 1023.1 |
| 20260506163603 | 72 | 239 | 3.0 | 8.0 | 0.00 | 0.00 | 0.00 | 35 | 1023.1 |
| 20260506163517 | 72 | 239 | 3.0 | 8.0 | 0.00 | 0.00 | 0.00 | 35 | 1023.1 |
| 20260506163217 | 72 | 242 | 3.0 | 8.0 | 0.00 | 0.00 | 0.00 | 35 | 1023.1 |
| 20260506162703 | 72 | 243 | 3.0 | 8.0 | 0.00 | 0.00 | 0.00 | 35 | 1023.4 |
| 20260506162403 | 73 | 240 | 3.0 | 8.0 | 0.00 | 0.00 | 0.00 | 34 | 1023.1 |
| 20260506162104 | 73 | 242 | 2.0 | 6.0 | 0.00 | 0.00 | 0.00 | 34 | 1023.2 |
| 20260506162018 | 73 | 243 | 2.0 | 6.0 | 0.00 | 0.00 | 0.00 | 34 | 1023.2 |
| 20260506161718 | 73 | 243 | 3.0 | 6.0 | 0.00 | 0.00 | 0.00 | 33 | 1023.2 |
| 20260506161203 | 73 | 244 | 3.0 | 7.0 | 0.00 | 0.00 | 0.00 | 33 | 1023.0 |
| 20260506160903 | 74 | 246 | 3.0 | 7.0 | 0.00 | 0.00 | 0.00 | 33 | 1023.2 |
| 20260506160603 | 74 | 241 | 3.0 | 8.0 | 0.00 | 0.00 | 0.00 | 32 | 1023.3 |
| 20260506160517 | 74 | 240 | 3.0 | 8.0 | 0.00 | 0.00 | 0.00 | 32 | 1023.1 |
| 20260506160003 | 74 | 239 | 5.0 | 8.0 | 0.00 | 0.00 | 0.00 | 32 | 1023.0 |
| 20260506155703 | 73 | 235 | 5.0 | 8.0 | 0.00 | 0.00 | 0.00 | 32 | 1023.4 |
| 20260506155403 | 73 | 235 | 5.0 | 8.0 | 0.00 | 0.00 | 0.00 | 31 | 1023.1 |
| 20260506155318 | 73 | 232 | 5.0 | 8.0 | 0.00 | 0.00 | 0.00 | 31 | 1023.1 |
| 20260506155018 | 73 | 235 | 5.0 | 8.0 | 0.00 | 0.00 | 0.00 | 31 | 1023.2 |
| 20260506154503 | 73 | 237 | 5.0 | 11.0 | 0.00 | 0.00 | 0.00 | 31 | 1023.0 |
| 20260506154417 | 73 | 238 | 5.0 | 11.0 | 0.00 | 0.00 | 0.00 | 31 | 1023.0 |
| 20260506153903 | 74 | 241 | 6.0 | 11.0 | 0.00 | 0.00 | 0.00 | 30 | 1023.3 |
| 20260506153603 | 74 | 240 | 5.0 | 10.0 | 0.00 | 0.00 | 0.00 | 30 | 1023.0 |
| 20260506153303 | 74 | 240 | 6.0 | 10.0 | 0.00 | 0.00 | 0.00 | 30 | 1023.1 |
| 20260506153003 | 74 | 241 | 6.0 | 11.0 | 0.00 | 0.00 | 0.00 | 30 | 1023.3 |
| 20260506152703 | 74 | 239 | 6.0 | 11.0 | 0.00 | 0.00 | 0.00 | 30 | 1023.4 |
| 20260506152618 | 73 | 239 | 5.0 | 11.0 | 0.00 | 0.00 | 0.00 | 30 | 1023.4 |
| 20260506152103 | 74 | 232 | 6.0 | 11.0 | 0.00 | 0.00 | 0.00 | 30 | 1023.5 |
| 20260506151803 | 73 | 236 | 6.0 | 11.0 | 0.00 | 0.00 | 0.00 | 30 | 1023.4 |
| 20260506151503 | 74 | 239 | 6.0 | 11.0 | 0.00 | 0.00 | 0.00 | 31 | 1023.3 |
| 20260506151203 | 74 | 240 | 5.0 | 11.0 | 0.00 | 0.00 | 0.00 | 31 | 1023.3 |
| 20260506150903 | 74 | 233 | 6.0 | 11.0 | 0.00 | 0.00 | 0.00 | 31 | 1023.4 |
| 20260506150817 | 74 | 234 | 6.0 | 11.0 | 0.00 | 0.00 | 0.00 | 31 | 1023.4 |
| 20260506150305 | 73 | 234 | 7.0 | 15.0 | 0.00 | 0.00 | 0.00 | 31 | 1023.4 |
| 20260506150216 | 73 | 235 | 7.0 | 15.0 | 0.00 | 0.00 | 0.00 | 31 | 1023.5 |
| 20260506145918 | 74 | 240 | 7.0 | 15.0 | 0.00 | 0.00 | 0.00 | 31 | 1023.5 |
| 20260506145403 | 73 | 240 | 7.0 | 14.0 | 0.00 | 0.00 | 0.00 | 32 | 1023.7 |
| 20260506145103 | 74 | 236 | 6.0 | 14.0 | 0.00 | 0.00 | 0.00 | 32 | 1023.5 |
| 20260506145017 | 74 | 236 | 6.0 | 14.0 | 0.00 | 0.00 | 0.00 | 32 | 1023.5 |
| 20260506144503 | 75 | 236 | 4.0 | 14.0 | 0.00 | 0.00 | 0.00 | 31 | 1023.4 |
| 20260506144203 | 74 | 232 | 4.0 | 8.0 | 0.00 | 0.00 | 0.00 | 32 | 1023.5 |
| 20260506143903 | 74 | 235 | 4.0 | 11.0 | 0.00 | 0.00 | 0.00 | 32 | 1023.3 |
| 20260506143604 | 73 | 236 | 5.0 | 11.0 | 0.00 | 0.00 | 0.00 | 32 | 1023.7 |
| 20260506143303 | 74 | 235 | 5.0 | 11.0 | 0.00 | 0.00 | 0.00 | 33 | 1023.5 |
| 20260506143003 | 74 | 230 | 5.0 | 10.0 | 0.00 | 0.00 | 0.00 | 33 | 1023.4 |
| 20260506142703 | 74 | 231 | 5.0 | 10.0 | 0.00 | 0.00 | 0.00 | 34 | 1023.4 |
| 20260506142618 | 74 | 231 | 5.0 | 10.0 | 0.00 | 0.00 | 0.00 | 34 | 1023.4 |
| 20260506142103 | 73 | 238 | 6.0 | 10.0 | 0.00 | 0.00 | 0.00 | 34 | 1023.4 |
| 20260506141803 | 73 | 241 | 6.0 | 9.0 | 0.00 | 0.00 | 0.00 | 35 | 1023.7 |
| 20260506141503 | 73 | 241 | 6.0 | 11.0 | 0.00 | 0.00 | 0.00 | 35 | 1023.4 |
| 20260506141203 | 73 | 243 | 6.0 | 11.0 | 0.00 | 0.00 | 0.00 | 35 | 1023.4 |
| 20260506140903 | 73 | 237 | 6.0 | 11.0 | 0.00 | 0.00 | 0.00 | 36 | 1023.5 |
| 20260506140603 | 73 | 242 | 6.0 | 11.0 | 0.00 | 0.00 | 0.00 | 35 | 1023.4 |
| 20260506140303 | 72 | 232 | 6.0 | 13.0 | 0.00 | 0.00 | 0.00 | 36 | 1023.7 |
| 20260506140003 | 73 | 231 | 6.0 | 13.0 | 0.00 | 0.00 | 0.00 | 36 | 1023.7 |
| 20260506135703 | 73 | 232 | 6.0 | 13.0 | 0.00 | 0.00 | 0.00 | 37 | 1023.7 |
| 20260506135403 | 73 | 236 | 6.0 | 10.0 | 0.00 | 0.00 | 0.00 | 37 | 1023.7 |
| 20260506135103 | 73 | 239 | 6.0 | 11.0 | 0.00 | 0.00 | 0.00 | 38 | 1023.7 |
| 20260506134803 | 72 | 242 | 6.0 | 14.0 | 0.00 | 0.00 | 0.00 | 39 | 1023.5 |
| 20260506134717 | 72 | 243 | 6.0 | 14.0 | 0.00 | 0.00 | 0.00 | 39 | 1023.7 |
| 20260506134203 | 72 | 240 | 6.0 | 14.0 | 0.00 | 0.00 | 0.00 | 39 | 1023.7 |
| 20260506133903 | 72 | 238 | 6.0 | 11.0 | 0.00 | 0.00 | 0.00 | 40 | 1023.7 |
| 20260506133603 | 73 | 236 | 5.0 | 11.0 | 0.00 | 0.00 | 0.00 | 40 | 1023.7 |
| 20260506133303 | 73 | 229 | 5.0 | 11.0 | 0.00 | 0.00 | 0.00 | 39 | 1023.7 |
| 20260506133218 | 73 | 228 | 5.0 | 11.0 | 0.00 | 0.00 | 0.00 | 40 | 1023.8 |
| 20260506132703 | 73 | 222 | 5.0 | 11.0 | 0.00 | 0.00 | 0.00 | 41 | 1023.7 |
| 20260506132403 | 73 | 221 | 5.0 | 11.0 | 0.00 | 0.00 | 0.00 | 39 | 1024.0 |
| 20260506132103 | 74 | 225 | 5.0 | 11.0 | 0.00 | 0.00 | 0.00 | 39 | 1023.7 |
| 20260506131803 | 73 | 225 | 5.0 | 11.0 | 0.00 | 0.00 | 0.00 | 40 | 1023.4 |
| 20260506131504 | 73 | 232 | 6.0 | 11.0 | 0.00 | 0.00 | 0.00 | 40 | 1023.5 |
| 20260506131203 | 74 | 233 | 6.0 | 11.0 | 0.00 | 0.00 | 0.00 | 40 | 1023.5 |
| 20260506131116 | 74 | 234 | 6.0 | 11.0 | 0.00 | 0.00 | 0.00 | 39 | 1023.7 |
| 20260506130603 | 73 | 235 | 6.0 | 10.0 | 0.00 | 0.00 | 0.00 | 40 | 1023.5 |
| 20260506130303 | 73 | 233 | 6.0 | 11.0 | 0.00 | 0.00 | 0.00 | 40 | 1023.7 |
| 20260506130003 | 74 | 231 | 6.0 | 11.0 | 0.00 | 0.00 | 0.00 | 38 | 1023.7 |
| 20260506125703 | 74 | 223 | 6.0 | 11.0 | 0.00 | 0.00 | 0.00 | 38 | 1023.5 |
| 20260506125403 | 74 | 222 | 6.0 | 13.0 | 0.00 | 0.00 | 0.00 | 36 | 1023.8 |
| 20260506125103 | 74 | 224 | 6.0 | 13.0 | 0.00 | 0.00 | 0.00 | 35 | 1023.8 |
| 20260506124803 | 74 | 236 | 7.0 | 13.0 | 0.00 | 0.00 | 0.00 | 35 | 1023.8 |
| 20260506124503 | 74 | 237 | 7.0 | 13.0 | 0.00 | 0.00 | 0.00 | 34 | 1023.8 |
| 20260506124416 | 74 | 235 | 7.0 | 13.0 | 0.00 | 0.00 | 0.00 | 34 | 1023.8 |
| 20260506123903 | 73 | 235 | 8.0 | 15.0 | 0.00 | 0.00 | 0.00 | 35 | 1023.9 |
| 20260506123603 | 73 | 233 | 8.0 | 15.0 | 0.00 | 0.00 | 0.00 | 35 | 1024.0 |
| 20260506123303 | 73 | 229 | 7.0 | 15.0 | 0.00 | 0.00 | 0.00 | 36 | 1023.8 |
| 20260506123003 | 74 | 228 | 7.0 | 14.0 | 0.00 | 0.00 | 0.00 | 37 | 1023.9 |
| 20260506122703 | 74 | 229 | 6.0 | 13.0 | 0.00 | 0.00 | 0.00 | 36 | 1024.0 |
| 20260506122403 | 74 | 226 | 7.0 | 13.0 | 0.00 | 0.00 | 0.00 | 37 | 1023.9 |
| 20260506122103 | 74 | 224 | 6.0 | 13.0 | 0.00 | 0.00 | 0.00 | 38 | 1023.8 |
| 20260506121803 | 74 | 214 | 5.0 | 11.0 | 0.00 | 0.00 | 0.00 | 37 | 1023.9 |
| 20260506121503 | 74 | 224 | 5.0 | 14.0 | 0.00 | 0.00 | 0.00 | 37 | 1023.9 |
| 20260506121203 | 74 | 225 | 5.0 | 14.0 | 0.00 | 0.00 | 0.00 | 37 | 1023.8 |
| 20260506120903 | 73 | 230 | 6.0 | 14.0 | 0.00 | 0.00 | 0.00 | 37 | 1023.8 |
| 20260506120603 | 73 | 233 | 7.0 | 14.0 | 0.00 | 0.00 | 0.00 | 38 | 1023.7 |
| 20260506120303 | 73 | 235 | 7.0 | 14.0 | 0.00 | 0.00 | 0.00 | 39 | 1024.1 |
| 20260506120004 | 73 | 233 | 7.0 | 14.0 | 0.00 | 0.00 | 0.00 | 39 | 1024.1 |
| 20260506115703 | 73 | 227 | 7.0 | 14.0 | 0.00 | 0.00 | 0.00 | 39 | 1024.1 |
| 20260506115403 | 74 | 222 | 6.0 | 14.0 | 0.00 | 0.00 | 0.00 | 38 | 1023.8 |
| 20260506115103 | 73 | 222 | 6.0 | 13.0 | 0.00 | 0.00 | 0.00 | 39 | 1023.8 |
| 20260506114803 | 74 | 221 | 6.0 | 13.0 | 0.00 | 0.00 | 0.00 | 39 | 1023.8 |
| 20260506114718 | 74 | 219 | 6.0 | 13.0 | 0.00 | 0.00 | 0.00 | 40 | 1023.8 |
| 20260506114204 | 74 | 221 | 6.0 | 13.0 | 0.00 | 0.00 | 0.00 | 40 | 1024.2 |
| 20260506113903 | 73 | 222 | 6.0 | 13.0 | 0.00 | 0.00 | 0.00 | 42 | 1024.0 |
| 20260506113603 | 73 | 227 | 7.0 | 13.0 | 0.00 | 0.00 | 0.00 | 43 | 1024.0 |
| 20260506113303 | 73 | 227 | 7.0 | 14.0 | 0.00 | 0.00 | 0.00 | 42 | 1024.2 |
| 20260506113003 | 73 | 228 | 7.0 | 14.0 | 0.00 | 0.00 | 0.00 | 44 | 1024.2 |
| 20260506112917 | 73 | 225 | 7.0 | 14.0 | 0.00 | 0.00 | 0.00 | 44 | 1024.0 |
| 20260506112403 | 74 | 215 | 6.0 | 14.0 | 0.00 | 0.00 | 0.00 | 43 | 1024.0 |
| 20260506112316 | 74 | 215 | 6.0 | 13.0 | 0.00 | 0.00 | 0.00 | 43 | 1024.1 |
| 20260506111803 | 74 | 219 | 6.0 | 13.0 | 0.00 | 0.00 | 0.00 | 42 | 1024.0 |
| 20260506111503 | 74 | 222 | 6.0 | 13.0 | 0.00 | 0.00 | 0.00 | 41 | 1024.0 |
| 20260506111203 | 74 | 212 | 6.0 | 13.0 | 0.00 | 0.00 | 0.00 | 41 | 1024.1 |
| 20260506110903 | 75 | 213 | 5.0 | 10.0 | 0.00 | 0.00 | 0.00 | 39 | 1024.2 |
| 20260506110603 | 75 | 207 | 5.0 | 11.0 | 0.00 | 0.00 | 0.00 | 39 | 1024.0 |
| 20260506110303 | 75 | 209 | 6.0 | 14.0 | 0.00 | 0.00 | 0.00 | 37 | 1024.0 |
| 20260506110003 | 75 | 214 | 6.0 | 14.0 | 0.00 | 0.00 | 0.00 | 36 | 1024.0 |
| 20260506105703 | 75 | 217 | 6.0 | 14.0 | 0.00 | 0.00 | 0.00 | 35 | 1024.1 |
| 20260506105403 | 76 | 224 | 6.0 | 14.0 | 0.00 | 0.00 | 0.00 | 34 | 1024.0 |
| 20260506105103 | 76 | 220 | 5.0 | 11.0 | 0.00 | 0.00 | 0.00 | 32 | 1024.2 |
| 20260506104803 | 75 | 226 | 5.0 | 14.0 | 0.00 | 0.00 | 0.00 | 32 | 1024.0 |
| 20260506104718 | 75 | 227 | 6.0 | 14.0 | 0.00 | 0.00 | 0.00 | 33 | 1023.8 |
| 20260506104203 | 75 | 225 | 6.0 | 14.0 | 0.00 | 0.00 | 0.00 | 34 | 1023.9 |
| 20260506103903 | 76 | 228 | 5.0 | 14.0 | 0.00 | 0.00 | 0.00 | 34 | 1024.2 |
| 20260506103603 | 76 | 224 | 5.0 | 10.0 | 0.00 | 0.00 | 0.00 | 33 | 1024.0 |
| 20260506103517 | 76 | 223 | 4.0 | 10.0 | 0.00 | 0.00 | 0.00 | 33 | 1024.0 |
| 20260506103003 | 75 | 226 | 5.0 | 10.0 | 0.00 | 0.00 | 0.00 | 33 | 1024.1 |
| 20260506102703 | 75 | 225 | 5.0 | 10.0 | 0.00 | 0.00 | 0.00 | 33 | 1024.1 |
| 20260506102403 | 75 | 224 | 5.0 | 10.0 | 0.00 | 0.00 | 0.00 | 33 | 1024.1 |
| 20260506102318 | 75 | 222 | 5.0 | 10.0 | 0.00 | 0.00 | 0.00 | 33 | 1024.1 |
| 20260506102018 | 75 | 216 | 5.0 | 8.0 | 0.00 | 0.00 | 0.00 | 32 | 1024.1 |
| 20260506101503 | 76 | 215 | 4.0 | 8.0 | 0.00 | 0.00 | 0.00 | 32 | 1024.3 |
| 20260506101203 | 76 | 217 | 4.0 | 9.0 | 0.00 | 0.00 | 0.00 | 33 | 1023.9 |
| 20260506100903 | 75 | 222 | 5.0 | 9.0 | 0.00 | 0.00 | 0.00 | 33 | 1023.9 |
| 20260506100603 | 74 | 220 | 5.0 | 9.0 | 0.00 | 0.00 | 0.00 | 33 | 1024.2 |
| 20260506100303 | 75 | 222 | 5.0 | 9.0 | 0.00 | 0.00 | 0.00 | 33 | 1024.0 |
| 20260506100003 | 75 | 227 | 5.0 | 8.0 | 0.00 | 0.00 | 0.00 | 33 | 1024.1 |
| 20260506095703 | 75 | 219 | 4.0 | 8.0 | 0.00 | 0.00 | 0.00 | 34 | 1024.1 |
| 20260506095403 | 75 | 214 | 4.0 | 8.0 | 0.00 | 0.00 | 0.00 | 34 | 1024.0 |
| 20260506095103 | 74 | 193 | 4.0 | 10.0 | 0.00 | 0.00 | 0.00 | 36 | 1024.0 |
| 20260506094803 | 74 | 202 | 4.0 | 10.0 | 0.00 | 0.00 | 0.00 | 36 | 1024.3 |
| 20260506094503 | 75 | 200 | 4.0 | 10.0 | 0.00 | 0.00 | 0.00 | 37 | 1024.3 |
| 20260506094203 | 75 | 218 | 3.0 | 7.0 | 0.00 | 0.00 | 0.00 | 37 | 1024.4 |
| 20260506093903 | 75 | 220 | 4.0 | 9.0 | 0.00 | 0.00 | 0.00 | 37 | 1024.3 |
| 20260506093603 | 74 | 220 | 3.0 | 9.0 | 0.00 | 0.00 | 0.00 | 38 | 1024.2 |
| 20260506093519 | 74 | 217 | 4.0 | 9.0 | 0.00 | 0.00 | 0.00 | 38 | 1024.2 |
| 20260506093003 | 75 | 208 | 4.0 | 9.0 | 0.00 | 0.00 | 0.00 | 37 | 1024.3 |
| 20260506092703 | 74 | 207 | 4.0 | 9.0 | 0.00 | 0.00 | 0.00 | 38 | 1023.9 |
| 20260506092618 | 74 | 209 | 4.0 | 9.0 | 0.00 | 0.00 | 0.00 | 38 | 1023.9 |
| 20260506092103 | 75 | 225 | 4.0 | 9.0 | 0.00 | 0.00 | 0.00 | 38 | 1024.4 |
| 20260506091803 | 75 | 222 | 4.0 | 8.0 | 0.00 | 0.00 | 0.00 | 38 | 1024.2 |
| 20260506091503 | 74 | 226 | 3.0 | 7.0 | 0.00 | 0.00 | 0.00 | 37 | 1024.4 |
| 20260506091203 | 74 | 211 | 3.0 | 8.0 | 0.00 | 0.00 | 0.00 | 38 | 1024.2 |
| 20260506090903 | 74 | 212 | 3.0 | 8.0 | 0.00 | 0.00 | 0.00 | 38 | 1024.4 |
| 20260506090603 | 74 | 199 | 3.0 | 8.0 | 0.00 | 0.00 | 0.00 | 38 | 1024.0 |
| 20260506090303 | 74 | 215 | 4.0 | 10.0 | 0.00 | 0.00 | 0.00 | 38 | 1024.4 |
| 20260506090003 | 74 | 214 | 4.0 | 10.0 | 0.00 | 0.00 | 0.00 | 38 | 1024.2 |
| 20260506085703 | 75 | 220 | 4.0 | 10.0 | 0.00 | 0.00 | 0.00 | 38 | 1024.3 |
| 20260506085403 | 74 | 213 | 4.0 | 8.0 | 0.00 | 0.00 | 0.00 | 38 | 1024.3 |
| 20260506085317 | 74 | 215 | 3.0 | 8.0 | 0.00 | 0.00 | 0.00 | 38 | 1024.1 |
| 20260506084803 | 74 | 214 | 3.0 | 8.0 | 0.00 | 0.00 | 0.00 | 38 | 1024.1 |
| 20260506084503 | 75 | 189 | 3.0 | 8.0 | 0.00 | 0.00 | 0.00 | 37 | 1024.3 |
| 20260506084417 | 74 | 188 | 3.0 | 8.0 | 0.00 | 0.00 | 0.00 | 37 | 1024.2 |
| 20260506084117 | 74 | 179 | 3.0 | 8.0 | 0.00 | 0.00 | 0.00 | 37 | 1023.9 |
| 20260506083603 | 74 | 198 | 4.0 | 8.0 | 0.00 | 0.00 | 0.00 | 37 | 1024.2 |
| 20260506083303 | 74 | 196 | 3.0 | 7.0 | 0.00 | 0.00 | 0.00 | 36 | 1024.2 |
| 20260506083003 | 74 | 193 | 3.0 | 9.0 | 0.00 | 0.00 | 0.00 | 35 | 1024.1 |
| 20260506082703 | 74 | 187 | 3.0 | 9.0 | 0.00 | 0.00 | 0.00 | 33 | 1023.9 |
| 20260506082403 | 75 | 187 | 3.0 | 9.0 | 0.00 | 0.00 | 0.00 | 33 | 1024.2 |
| 20260506082103 | 74 | 198 | 3.0 | 6.0 | 0.00 | 0.00 | 0.00 | 33 | 1024.2 |
| 20260506081803 | 74 | 215 | 3.0 | 6.0 | 0.00 | 0.00 | 0.00 | 33 | 1024.4 |
| 20260506081503 | 74 | 224 | 3.0 | 6.0 | 0.00 | 0.00 | 0.00 | 33 | 1024.3 |
| 20260506081203 | 74 | 230 | 3.0 | 6.0 | 0.00 | 0.00 | 0.00 | 34 | 1023.9 |
| 20260506080903 | 73 | 232 | 3.0 | 6.0 | 0.00 | 0.00 | 0.00 | 34 | 1024.2 |
| 20260506080603 | 74 | 232 | 3.0 | 8.0 | 0.00 | 0.00 | 0.00 | 34 | 1024.1 |
| 20260506080303 | 73 | 222 | 3.0 | 8.0 | 0.00 | 0.00 | 0.00 | 33 | 1024.0 |
| 20260506080218 | 72 | 219 | 3.0 | 8.0 | 0.00 | 0.00 | 0.00 | 34 | 1024.3 |
| 20260506073303 | 73 | 229 | 2.0 | 4.0 | 0.00 | 0.00 | 0.00 | 35 | 1024.0 |
| 20260506073003 | 75 | 229 | 2.0 | 4.0 | 0.00 | 0.00 | 0.00 | 34 | 1023.9 |
| 20260506072703 | 72 | 205 | 1.0 | 4.0 | 0.00 | 0.00 | 0.00 | 35 | 1024.0 |
| 20260506072403 | 73 | 210 | 2.0 | 4.0 | 0.00 | 0.00 | 0.00 | 35 | 1023.9 |
| 20260506072103 | 72 | 198 | 1.0 | 4.0 | 0.00 | 0.00 | 0.00 | 34 | 1023.8 |
| 20260506071803 | 71 | 214 | 2.0 | 6.0 | 0.00 | 0.00 | 0.00 | 36 | 1023.5 |
| 20260506071503 | 71 | 228 | 3.0 | 6.0 | 0.00 | 0.00 | 0.00 | 36 | 1023.8 |
| 20260506071416 | 70 | 231 | 3.0 | 7.0 | 0.00 | 0.00 | 0.00 | 36 | 1023.8 |
| 20260506070903 | 71 | 234 | 3.0 | 7.0 | 0.00 | 0.00 | 0.00 | 36 | 1024.0 |
| 20260506070818 | 72 | 234 | 3.0 | 7.0 | 0.00 | 0.00 | 0.00 | 36 | 1024.0 |
| 20260506070303 | 73 | 226 | 1.0 | 4.0 | 0.00 | 0.00 | 0.00 | 34 | 1023.8 |
| 20260506062403 | 70 | 10 | 1.0 | 2.0 | 0.00 | 0.00 | 0.00 | 39 | 1023.8 |
| 20260506062103 | 71 | 31 | 1.0 | 2.0 | 0.00 | 0.00 | 0.00 | 39 | 1023.8 |
| 20260506062016 | 71 | 46 | 1.0 | 2.0 | 0.00 | 0.00 | 0.00 | 38 | 1023.7 |
| 20260506061503 | 70 | 54 | 0.0 | 1.0 | 0.00 | 0.00 | 0.00 | 39 | 1023.9 |
| 20260506061203 | 69 | 54 | 0.0 | 1.0 | 0.00 | 0.00 | 0.00 | 40 | 1023.9 |
| 20260506060903 | 69 | 54 | 0.0 | 1.0 | 0.00 | 0.00 | 0.00 | 41 | 1024.1 |
| 20260506060603 | 68 | 54 | 0.0 | 1.0 | 0.00 | 0.00 | 0.00 | 43 | 1024.0 |
| 20260506060304 | 67 | 53 | 1.0 | 2.0 | 0.00 | 0.00 | 0.00 | 44 | 1023.7 |
| 20260506051203 | 65 | 31 | 1.0 | 2.0 | 0.00 | 0.00 | 0.00 | 49 | 1023.7 |
| 20260506050903 | 65 | 26 | 0.0 | 2.0 | 0.00 | 0.00 | 0.00 | 49 | 1023.5 |
| 20260506050603 | 64 | 34 | 1.0 | 3.0 | 0.00 | 0.00 | 0.00 | 50 | 1023.8 |
| 20260506050303 | 64 | 41 | 1.0 | 3.0 | 0.00 | 0.00 | 0.00 | 51 | 1023.7 |
| 20260506050217 | 63 | 42 | 1.0 | 3.0 | 0.00 | 0.00 | 0.00 | 52 | 1023.7 |
| 20260506044803 | 62 | 52 | 2.0 | 4.0 | 0.00 | 0.00 | 0.00 | 55 | 1023.4 |
| 20260506044503 | 61 | 57 | 2.0 | 4.0 | 0.00 | 0.00 | 0.00 | 56 | 1023.3 |
| 20260506044203 | 61 | 64 | 3.0 | 6.0 | 0.00 | 0.00 | 0.00 | 56 | 1023.5 |
| 20260506043903 | 61 | 71 | 3.0 | 6.0 | 0.00 | 0.00 | 0.00 | 56 | 1023.7 |
| 20260506043603 | 61 | 67 | 3.0 | 6.0 | 0.00 | 0.00 | 0.00 | 56 | 1023.4 |
| 20260506043303 | 61 | 66 | 3.0 | 6.0 | 0.00 | 0.00 | 0.00 | 56 | 1023.4 |
| 20260506043003 | 61 | 67 | 3.0 | 6.0 | 0.00 | 0.00 | 0.00 | 56 | 1023.3 |
| 20260506042703 | 61 | 75 | 2.0 | 6.0 | 0.00 | 0.00 | 0.00 | 56 | 1023.3 |
| 20260506042403 | 61 | 95 | 1.0 | 3.0 | 0.00 | 0.00 | 0.00 | 56 | 1023.3 |
| 20260506042103 | 61 | 99 | 1.0 | 2.0 | 0.00 | 0.00 | 0.00 | 57 | 1023.3 |
| 20260506042018 | 61 | 100 | 1.0 | 2.0 | 0.00 | 0.00 | 0.00 | 57 | 1023.3 |
| 20260506041503 | 60 | 101 | 1.0 | 2.0 | 0.00 | 0.00 | 0.00 | 57 | 1023.5 |
| 20260506041203 | 60 | 104 | 1.0 | 2.0 | 0.00 | 0.00 | 0.00 | 58 | 1023.2 |
| 20260506040904 | 59 | 108 | 1.0 | 2.0 | 0.00 | 0.00 | 0.00 | 59 | 1023.4 |
| 20260506040603 | 59 | 110 | 1.0 | 2.0 | 0.00 | 0.00 | 0.00 | 60 | 1023.4 |
| 20260506040303 | 59 | 111 | 1.0 | 2.0 | 0.00 | 0.00 | 0.00 | 61 | 1023.2 |
| 20260506040003 | 59 | 106 | 1.0 | 2.0 | 0.00 | 0.00 | 0.00 | 61 | 1023.2 |
| 20260506035703 | 59 | 96 | 1.0 | 2.0 | 0.00 | 0.00 | 0.00 | 60 | 1023.1 |
| 20260506035403 | 59 | 92 | 1.0 | 2.0 | 0.00 | 0.00 | 0.00 | 60 | 1023.3 |
| 20260506035104 | 59 | 96 | 2.0 | 2.0 | 0.00 | 0.00 | 0.00 | 60 | 1023.1 |
| 20260506034803 | 59 | 101 | 1.0 | 2.0 | 0.00 | 0.00 | 0.00 | 60 | 1022.9 |
| 20260506034504 | 59 | 103 | 1.0 | 2.0 | 0.00 | 0.00 | 0.00 | 60 | 1023.0 |
| 20260506034417 | 59 | 101 | 1.0 | 2.0 | 0.00 | 0.00 | 0.00 | 60 | 1023.1 |
| 20260506034117 | 60 | 93 | 1.0 | 2.0 | 0.00 | 0.00 | 0.00 | 60 | 1023.0 |
| 20260506033603 | 60 | 53 | 1.0 | 3.0 | 0.00 | 0.00 | 0.00 | 60 | 1023.0 |
| 20260506033303 | 60 | 50 | 1.0 | 3.0 | 0.00 | 0.00 | 0.00 | 60 | 1022.9 |
| 20260506033003 | 60 | 49 | 2.0 | 3.0 | 0.00 | 0.00 | 0.00 | 59 | 1023.1 |
| 20260506032703 | 60 | 52 | 2.0 | 3.0 | 0.00 | 0.00 | 0.00 | 59 | 1022.9 |
| 20260506032403 | 60 | 62 | 2.0 | 3.0 | 0.00 | 0.00 | 0.00 | 59 | 1023.0 |
| 20260506032103 | 60 | 73 | 2.0 | 3.0 | 0.00 | 0.00 | 0.00 | 59 | 1022.8 |
| 20260506032017 | 60 | 77 | 2.0 | 3.0 | 0.00 | 0.00 | 0.00 | 59 | 1022.8 |
| 20260506031503 | 60 | 66 | 1.0 | 2.0 | 0.00 | 0.00 | 0.00 | 59 | 1022.8 |
| 20260506031203 | 60 | 41 | 1.0 | 2.0 | 0.00 | 0.00 | 0.00 | 59 | 1022.9 |
| 20260506031117 | 60 | 34 | 1.0 | 2.0 | 0.00 | 0.00 | 0.00 | 59 | 1022.9 |
| 20260506030603 | 59 | 19 | 1.0 | 3.0 | 0.00 | 0.00 | 0.00 | 60 | 1022.7 |
| 20260506030518 | 59 | 19 | 1.0 | 3.0 | 0.00 | 0.00 | 0.00 | 60 | 1022.7 |
| 20260506030003 | 59 | 57 | 1.0 | 2.0 | 0.00 | 0.00 | 0.00 | 59 | 1022.8 |
| 20260506025703 | 59 | 68 | 0.0 | 2.0 | 0.00 | 0.00 | 0.00 | 59 | 1022.9 |
| 20260506025618 | 59 | 68 | 0.0 | 2.0 | 0.00 | 0.00 | 0.00 | 59 | 1022.9 |
| 20260506025103 | 59 | 68 | 0.0 | 1.0 | 0.00 | 0.00 | 0.00 | 59 | 1022.8 |
| 20260506024804 | 59 | 68 | 0.0 | 1.0 | 0.00 | 0.00 | 0.00 | 59 | 1022.7 |
| 20260506024717 | 59 | 68 | 0.0 | 2.0 | 0.00 | 0.00 | 0.00 | 59 | 1022.8 |
| 20260506024416 | 59 | 65 | 1.0 | 2.0 | 0.00 | 0.00 | 0.00 | 59 | 1022.9 |
| 20260506023903 | 60 | 58 | 1.0 | 3.0 | 0.00 | 0.00 | 0.00 | 59 | 1022.7 |
| 20260506023818 | 60 | 58 | 1.0 | 3.0 | 0.00 | 0.00 | 0.00 | 59 | 1022.7 |
| 20260506023518 | 60 | 56 | 1.0 | 3.0 | 0.00 | 0.00 | 0.00 | 59 | 1022.9 |
| 20260506023003 | 59 | 67 | 1.0 | 2.0 | 0.00 | 0.00 | 0.00 | 59 | 1023.0 |
| 20260506022703 | 60 | 69 | 1.0 | 2.0 | 0.00 | 0.00 | 0.00 | 59 | 1023.0 |
| 20260506022617 | 60 | 69 | 1.0 | 2.0 | 0.00 | 0.00 | 0.00 | 59 | 1022.8 |
| 20260506022317 | 60 | 71 | 1.0 | 3.0 | 0.00 | 0.00 | 0.00 | 59 | 1023.1 |
| 20260506021804 | 60 | 73 | 1.0 | 3.0 | 0.00 | 0.00 | 0.00 | 59 | 1023.0 |
| 20260506021503 | 60 | 73 | 2.0 | 3.0 | 0.00 | 0.00 | 0.00 | 59 | 1022.8 |
| 20260506021203 | 60 | 72 | 1.0 | 2.0 | 0.00 | 0.00 | 0.00 | 59 | 1022.9 |
| 20260506020903 | 60 | 68 | 1.0 | 2.0 | 0.00 | 0.00 | 0.00 | 59 | 1022.8 |
| 20260506020604 | 60 | 63 | 1.0 | 3.0 | 0.00 | 0.00 | 0.00 | 58 | 1023.0 |
| 20260506020304 | 60 | 63 | 1.0 | 3.0 | 0.00 | 0.00 | 0.00 | 59 | 1023.1 |
| 20260506020217 | 60 | 62 | 1.0 | 3.0 | 0.00 | 0.00 | 0.00 | 59 | 1023.1 |
| 20260506015703 | 60 | 56 | 1.0 | 2.0 | 0.00 | 0.00 | 0.00 | 59 | 1022.8 |
| 20260506015403 | 60 | 55 | 1.0 | 2.0 | 0.00 | 0.00 | 0.00 | 59 | 1023.1 |
| 20260506015103 | 60 | 56 | 1.0 | 2.0 | 0.00 | 0.00 | 0.00 | 60 | 1023.0 |
| 20260506014803 | 61 | 57 | 1.0 | 2.0 | 0.00 | 0.00 | 0.00 | 59 | 1023.1 |
| 20260506014503 | 61 | 57 | 1.0 | 2.0 | 0.00 | 0.00 | 0.00 | 59 | 1023.2 |
| 20260506014203 | 61 | 49 | 1.0 | 2.0 | 0.00 | 0.00 | 0.00 | 59 | 1023.1 |
| 20260506013904 | 61 | 42 | 1.0 | 2.0 | 0.00 | 0.00 | 0.00 | 59 | 1023.1 |
| 20260506013818 | 61 | 39 | 1.0 | 2.0 | 0.00 | 0.00 | 0.00 | 59 | 1023.1 |
| 20260506013303 | 61 | 23 | 1.0 | 2.0 | 0.00 | 0.00 | 0.00 | 59 | 1023.2 |
| 20260506013003 | 61 | 24 | 1.0 | 2.0 | 0.00 | 0.00 | 0.00 | 59 | 1023.2 |
| 20260506012703 | 61 | 24 | 0.0 | 2.0 | 0.00 | 0.00 | 0.00 | 60 | 1023.1 |
| 20260506012617 | 61 | 24 | 0.0 | 2.0 | 0.00 | 0.00 | 0.00 | 60 | 1023.1 |
| 20260506012104 | 61 | 24 | 0.0 | 1.0 | 0.00 | 0.00 | 0.00 | 60 | 1023.2 |
| 20260506011803 | 61 | 24 | 0.0 | 1.0 | 0.00 | 0.00 | 0.00 | 60 | 1023.1 |
| 20260506011503 | 61 | 24 | 0.0 | 1.0 | 0.00 | 0.00 | 0.00 | 59 | 1022.9 |
| 20260506011203 | 61 | 24 | 0.0 | 1.0 | 0.00 | 0.00 | 0.00 | 59 | 1023.0 |
| 20260506010903 | 61 | 24 | 0.0 | 1.0 | 0.00 | 0.00 | 0.00 | 59 | 1023.1 |
| 20260506010817 | 61 | 24 | 0.0 | 1.0 | 0.00 | 0.00 | 0.00 | 59 | 1023.1 |
| 20260506010517 | 61 | 0 | 0.0 | 0.0 | 0.00 | 0.00 | 0.00 | 59 | 1023.0 |
| 20260506010003 | 61 | 0 | 0.0 | 0.0 | 0.00 | 0.00 | 0.00 | 59 | 1023.0 |
| 20260506005703 | 61 | 0 | 0.0 | 0.0 | 0.00 | 0.00 | 0.00 | 59 | 1023.1 |
| 20260506005617 | 61 | 0 | 0.0 | 0.0 | 0.00 | 0.00 | 0.00 | 59 | 1023.1 |
| 20260506005103 | 61 | 0 | 0.0 | 0.0 | 0.00 | 0.00 | 0.00 | 59 | 1023.3 |
| 20260506004803 | 61 | 0 | 0.0 | 0.0 | 0.00 | 0.00 | 0.00 | 59 | 1023.3 |
| 20260506004504 | 61 | 0 | 0.0 | 0.0 | 0.00 | 0.00 | 0.00 | 58 | 1023.3 |
| 20260506004203 | 62 | 0 | 0.0 | 0.0 | 0.00 | 0.00 | 0.00 | 58 | 1023.2 |
| 20260506003903 | 62 | 0 | 0.0 | 0.0 | 0.00 | 0.00 | 0.00 | 57 | 1023.3 |
| 20260506003817 | 62 | 0 | 0.0 | 0.0 | 0.00 | 0.00 | 0.00 | 57 | 1023.4 |
| 20260506003303 | 62 | 24 | 0.0 | 1.0 | 0.00 | 0.00 | 0.00 | 57 | 1023.2 |
| 20260506003003 | 62 | 24 | 0.0 | 1.0 | 0.00 | 0.00 | 0.00 | 58 | 1023.2 |
| 20260506002917 | 62 | 24 | 0.0 | 1.0 | 0.00 | 0.00 | 0.00 | 58 | 1023.2 |
| 20260506002404 | 61 | 0 | 0.0 | 0.0 | 0.00 | 0.00 | 0.00 | 58 | 1023.2 |
| 20260506002103 | 62 | 0 | 0.0 | 0.0 | 0.00 | 0.00 | 0.00 | 58 | 1023.1 |
| 20260506001803 | 62 | 0 | 0.0 | 0.0 | 0.00 | 0.00 | 0.00 | 58 | 1023.4 |
| 20260506001503 | 62 | 0 | 0.0 | 0.0 | 0.00 | 0.00 | 0.00 | 58 | 1023.3 |
| 20260506001203 | 62 | 24 | 0.0 | 1.0 | 0.00 | 0.00 | 0.00 | 58 | 1023.2 |
| 20260506000903 | 62 | 24 | 0.0 | 1.0 | 0.00 | 0.00 | 0.00 | 58 | 1023.3 |
| 20260506000603 | 61 | 24 | 0.0 | 1.0 | 0.00 | 0.00 | 0.00 | 59 | 1023.2 |
| 20260506000303 | 61 | 24 | 0.0 | 1.0 | 0.00 | 0.00 | 0.00 | 58 | 1023.2 |
| 20260506000004 | 62 | 0 | 0.0 | 0.0 | 0.00 | 0.00 | 0.00 | 58 | 1023.3 |
| 20260505235703 | 62 | 24 | 0.0 | 1.0 | 0.00 | 0.00 | 0.00 | 58 | 1023.1 |
| 20260505235616 | 62 | 24 | 0.0 | 1.0 | 0.00 | 0.00 | 0.00 | 58 | 1023.1 |
| 20260505235103 | 61 | 24 | 0.0 | 1.0 | 0.00 | 0.00 | 0.00 | 58 | 1023.3 |
| 20260505234803 | 61 | 0 | 0.0 | 0.0 | 0.00 | 0.00 | 0.00 | 58 | 1023.3 |
| 20260505234503 | 61 | 0 | 0.0 | 0.0 | 0.00 | 0.00 | 0.00 | 58 | 1023.3 |
| 20260505234417 | 61 | 0 | 0.0 | 0.0 | 0.00 | 0.00 | 0.00 | 58 | 1023.3 |
| 20260505233903 | 61 | 0 | 0.0 | 0.0 | 0.00 | 0.00 | 0.00 | 57 | 1023.3 |
| 20260505233603 | 62 | 0 | 0.0 | 0.0 | 0.00 | 0.00 | 0.00 | 57 | 1023.3 |
| 20260505233303 | 62 | 0 | 0.0 | 0.0 | 0.00 | 0.00 | 0.00 | 56 | 1023.4 |
| 20260505233216 | 62 | 0 | 0.0 | 0.0 | 0.00 | 0.00 | 0.00 | 56 | 1023.4 |
| 20260505232703 | 62 | 0 | 0.0 | 0.0 | 0.00 | 0.00 | 0.00 | 56 | 1023.5 |
| 20260505232403 | 62 | 0 | 0.0 | 0.0 | 0.00 | 0.00 | 0.00 | 56 | 1023.5 |
| 20260505232103 | 62 | 0 | 0.0 | 0.0 | 0.00 | 0.00 | 0.00 | 57 | 1023.3 |
| 20260505231803 | 61 | 0 | 0.0 | 0.0 | 0.00 | 0.00 | 0.00 | 57 | 1023.7 |
| 20260505231717 | 61 | 0 | 0.0 | 0.0 | 0.00 | 0.00 | 0.00 | 57 | 1023.7 |
| 20260505231417 | 62 | 0 | 0.0 | 0.0 | 0.00 | 0.00 | 0.00 | 57 | 1023.3 |
| 20260505230903 | 62 | 0 | 0.0 | 0.0 | 0.00 | 0.00 | 0.00 | 56 | 1023.3 |
| 20260505230603 | 62 | 0 | 0.0 | 0.0 | 0.00 | 0.00 | 0.00 | 55 | 1023.3 |
| 20260505230303 | 62 | 0 | 0.0 | 0.0 | 0.00 | 0.00 | 0.00 | 55 | 1024.0 |
| 20260505230003 | 63 | 24 | 0.0 | 1.0 | 0.00 | 0.00 | 0.00 | 55 | 1023.5 |
| 20260505225703 | 63 | 24 | 0.0 | 1.0 | 0.00 | 0.00 | 0.00 | 54 | 1023.4 |
| 20260505225403 | 63 | 24 | 0.0 | 1.0 | 0.00 | 0.00 | 0.00 | 54 | 1023.5 |
| 20260505225103 | 63 | 0 | 0.0 | 0.0 | 0.00 | 0.00 | 0.00 | 55 | 1023.5 |
| 20260505225018 | 63 | 0 | 0.0 | 0.0 | 0.00 | 0.00 | 0.00 | 55 | 1023.5 |
| 20260505224503 | 62 | 0 | 0.0 | 0.0 | 0.00 | 0.00 | 0.00 | 55 | 1023.7 |
| 20260505224417 | 62 | 0 | 0.0 | 0.0 | 0.00 | 0.00 | 0.00 | 55 | 1023.7 |
| 20260505223903 | 62 | 0 | 0.0 | 0.0 | 0.00 | 0.00 | 0.00 | 54 | 1023.7 |
| 20260505223603 | 62 | 0 | 0.0 | 0.0 | 0.00 | 0.00 | 0.00 | 54 | 1023.5 |
| 20260505223303 | 62 | 0 | 0.0 | 0.0 | 0.00 | 0.00 | 0.00 | 55 | 1023.8 |
| 20260505223003 | 63 | 0 | 0.0 | 0.0 | 0.00 | 0.00 | 0.00 | 54 | 1023.7 |